{"data":{"norad_id":53897,"intl_designator":"2022-119M","name":"STARLINK-5035","alt_names":[],"object_type":"PAYLOAD","status":"ACTIVE","operator":null,"country":"US","launch_date":"2022-09-24","launch_site_code":"AFETR","launch_vehicle":null,"mission":null,"orbit_class":"UNKNOWN","rcs_meters":null,"size_class":null,"mass_kg":null,"dimensions":null,"purposes":["comms"],"wikipedia_slug":null,"has_3d_model":false,"image_url":null,"decayed_at":null,"tle_current":{"epoch":"2026-05-25T04:00:03.998880Z","epoch_age_seconds":53946,"freshness":"FRESH","line1":"1 53897U 22119M   26145.16671295  .00620673  00000+0  10354-1 0  9999","line2":"2 53897  53.2163 333.3786 0001210  77.9401   8.9108 15.49176719  5886","mean_motion":15.49176719,"eccentricity":0.000121,"inclination_deg":53.2163,"raan_deg":333.3786,"arg_perigee_deg":77.9401,"mean_anomaly_deg":8.9108,"bstar":0.010354,"rev_number":588,"period_min":92.952597488654,"perigee_km":418.31072163478,"apogee_km":419.95566102108,"semimajor_km":6797.2701913279,"source":"CELESTRAK","updated_at":"2026-05-25T13:38:17.583930Z"}}}